Brookings, OR

8:18 PM PDT on March 29, 2017 (GMT -0700)
Brookings State

Weather History for KBOK - January, 2014

Change the Weather History Date:

Tuesday, January 21, 2014

  Actual Average Record
Temperature  
Mean Temperature 46 °F -  
Max Temperature 54 °F 54 °F 72 °F (1968)
Min Temperature 37 °F 41 °F 21 °F (1962)
Degree Days  
Heating Degree Days 20    
Moisture  
Dew Point 40 °F    
Average Humidity 92    
Maximum Humidity 100    
Minimum Humidity 72    
Precipitation  
Precipitation 0.00 in - - ()
Sea Level Pressure  
Sea Level Pressure 30.30 in    
Wind  
Wind Speed 3 mph (NW)    
Max Wind Speed 12 mph    
Max Gust Speed -    
Visibility 4 miles    
Events Fog , Rain    
Averages and records for this station are not official NWS values.
T = Trace of Precipitation, MM = Missing Value Source: NWS Daily Summary

Daily Weather History Graph

Daily Weather History Graph

Search for Another Location

Airport or City:

Trip Planner

Search our weather history database for the weather conditions in past years. The results will help you decide how hot, cold, wet, or windy it might be!

Date:

Astronomy

Jan. 21, 2014 Rise Set
Actual Time 7:39 AM PST 5:18 PM PST
Civil Twilight 7:08 AM PST 5:48 PM PST
Nautical Twilight 6:34 AM PST 6:22 PM PST
Astronomical Twilight 6:01 AM PST 6:55 PM PST
Moon 11:03 PM PST (1/21) 10:05 AM PST (1/21)
Length of Visible Light 10h 39m
Length of Day
9h 38m
Waning Gibbous, 73% of the Moon is Illuminated
Jan 21
Waning Gibbous
Jan 23
Last Quarter
Jan 30
New
Feb 6
First Quarter
Feb 14
Full

Hourly Weather History & Observations

Time (PST) Temp. Windchill Dew Point Humidity Pressure Visibility Wind Dir Wind Speed Gust Speed Precip Events Conditions
12:56 AM 41.9 °F 39.0 °F 39.9 °F 93% 30.25 in 4.0 mi NNW 4.6 mph - N/A   Clear
1:13 AM 42.8 °F - 39.2 °F 87% 30.25 in 1.5 mi Calm Calm - N/A   Clear
1:15 AM 42.8 °F 41.1 °F 39.2 °F 87% 30.25 in 0.5 mi West 3.5 mph - N/A Fog Fog
1:24 AM 41.0 °F - 39.2 °F 93% 30.26 in 0.2 mi Calm Calm - N/A Fog Fog
1:33 AM 42.8 °F 41.1 °F 41.0 °F 93% 30.26 in 0.2 mi NNE 3.5 mph - N/A Fog Fog
1:56 AM 41.0 °F - 41.0 °F 100% 30.28 in 0.2 mi Calm Calm - N/A Fog Fog
2:15 AM 41.0 °F 37.1 °F 41.0 °F 100% 30.27 in 0.2 mi SSE 5.8 mph - 0.00 in Fog , Rain Light Rain
2:41 AM 41.0 °F 34.3 °F 39.2 °F 93% 30.27 in 0.8 mi SSE 11.5 mph - 0.00 in Rain Light Rain
2:44 AM 41.0 °F 34.7 °F 39.2 °F 93% 30.27 in 1.5 mi South 10.4 mph - 0.00 in Rain Light Rain
2:47 AM 41.0 °F 35.2 °F 39.2 °F 93% 30.27 in 3.0 mi South 9.2 mph - 0.00 in Rain Light Rain
2:56 AM 39.9 °F 37.8 °F 39.9 °F 100% 30.29 in 8.0 mi Variable 3.5 mph - 0.00 in   Scattered Clouds
3:56 AM 38.8 °F 35.4 °F 37.9 °F 97% 30.26 in 9.0 mi ESE 4.6 mph - N/A   Clear
4:56 AM 39.9 °F - 37.9 °F 93% 30.27 in 5.0 mi Calm Calm - N/A   Clear
5:56 AM 41.9 °F 39.0 °F 36.0 °F 79% 30.27 in 10.0 mi Variable 4.6 mph - N/A   Clear
6:56 AM 37.9 °F - 36.0 °F 93% 30.29 in 8.0 mi Calm Calm - N/A   Clear
7:56 AM 37.9 °F 34.4 °F 36.9 °F 96% 30.30 in 4.0 mi NNE 4.6 mph - N/A   Clear
8:24 AM 37.4 °F 34.9 °F 37.4 °F 100% 30.32 in 2.5 mi North 3.5 mph - N/A   Scattered Clouds
8:34 AM 39.2 °F 35.9 °F 37.4 °F 93% 30.32 in 2.0 mi NNW 4.6 mph - N/A   Mostly Cloudy
8:56 AM 38.8 °F - 37.9 °F 97% 30.34 in 1.2 mi Calm Calm - N/A   Mostly Cloudy
9:04 AM 39.2 °F - 37.4 °F 93% 30.32 in 0.5 mi Calm Calm - N/A Fog Fog
9:07 AM 39.2 °F 37.0 °F 39.2 °F 100% 30.32 in 0.2 mi South 3.5 mph - N/A Fog Fog
9:13 AM 41.0 °F 39.0 °F 39.2 °F 93% 30.32 in 0.5 mi SSW 3.5 mph - N/A Fog Fog
9:16 AM 41.0 °F 39.0 °F 39.2 °F 93% 30.32 in 1.5 mi Variable 3.5 mph - N/A   Mostly Cloudy
9:19 AM 42.8 °F 41.1 °F 39.2 °F 87% 30.32 in 4.0 mi Variable 3.5 mph - N/A   Scattered Clouds
9:56 AM 41.0 °F 36.4 °F 39.9 °F 96% 30.37 in 1.8 mi NW 6.9 mph - N/A   Mostly Cloudy
9:59 AM 41.0 °F 36.4 °F 39.2 °F 93% 30.35 in 1.0 mi North 6.9 mph - N/A   Mostly Cloudy
10:03 AM 41.0 °F 37.1 °F 39.2 °F 93% 30.36 in 0.5 mi NNW 5.8 mph - N/A Fog Fog
10:13 AM 41.0 °F 38.0 °F 39.2 °F 93% 30.35 in 1.0 mi NNW 4.6 mph - N/A   Overcast
10:16 AM 42.8 °F 39.3 °F 41.0 °F 93% 30.35 in 1.5 mi NNW 5.8 mph - N/A   Overcast
10:22 AM 42.8 °F 40.1 °F 41.0 °F 93% 30.35 in 3.0 mi Variable 4.6 mph - N/A   Overcast
10:56 AM 45.0 °F 42.6 °F 41.0 °F 86% 30.35 in 7.0 mi West 4.6 mph - N/A   Partly Cloudy
11:56 AM 45.9 °F - 41.9 °F 86% 30.34 in 4.0 mi Calm Calm - N/A   Partly Cloudy
12:56 PM 45.9 °F - 41.9 °F 86% 30.32 in 4.0 mi Calm Calm - N/A   Clear
1:56 PM 54.0 °F - 45.0 °F 72% 30.29 in 6.0 mi Calm Calm - N/A   Haze
2:56 PM 52.9 °F - 45.0 °F 74% 30.28 in 6.0 mi WNW 3.5 mph - N/A   Haze
3:56 PM 47.8 °F - 43.9 °F 86% 30.29 in 5.0 mi West 4.6 mph - N/A   Clear
4:56 PM 47.8 °F - 43.9 °F 86% 30.29 in 5.0 mi Calm Calm - N/A   Clear
5:56 PM 45.0 °F - 43.0 °F 93% 30.30 in 5.0 mi Calm Calm - N/A   Clear
6:21 PM 44.6 °F 42.2 °F 42.8 °F 93% 30.31 in 5.0 mi North 4.6 mph - N/A   Partly Cloudy
6:56 PM 43.0 °F - 41.0 °F 93% 30.32 in 6.0 mi Calm Calm - N/A   Clear
7:56 PM 41.9 °F - 39.9 °F 93% 30.32 in 5.0 mi Calm Calm - N/A   Clear
8:56 PM 39.9 °F - 39.9 °F 100% 30.32 in 6.0 mi Calm Calm - N/A   Clear
9:56 PM 41.0 °F 37.1 °F 38.8 °F 92% 30.32 in 5.0 mi North 5.8 mph - N/A   Clear
10:56 PM 38.8 °F - 37.9 °F 97% 30.33 in 7.0 mi Calm Calm - N/A   Clear
11:56 PM 37.9 °F - 37.9 °F 100% 30.32 in 8.0 mi Calm Calm - N/A   Clear